Location: Владивосток
(43.1151°N, 131.8856°E)
Time: 11:49:30
(UTC+10:00)

PRISM - Pass Details

Date: 22 April 2024
Orbit: 504 x 519 km, 98.2° (Epoch: 20 May)

Event Time Altitude Azimuth Distance (km) Brightness Sun altitude
Exits shadow 21:42:38 - 197° (SSW) 2,208 ? -16.9°
Reaches altitude 10° 21:43:58 10° 206° (SSW) 1,723 ? -17.1°
Maximum altitude 21:47:04 25° 263° (W) 1,053 ? -17.5°
Drops below altitude 10° 21:50:18 - 322° (NW) 1,767 ? -18.0°
Sets 21:52:33 0° 335° (NNW) 2,615 ? -18.3°
